[[{"header":{"parameterUnit":"m.s-1","parameterCategory":1,"la1":30.2991,"la2":30.254,"lo1":-89.0895,"lo2":-89.0444,"dy":0.0017,"dx":0.0017,"nx":28,"ny":28,"refTime":"2025-07-19T03:00:00:Z","depth":0,"parameterNumber":2,"parameterNumberName":"U-component_of_WINDS"},"data":[0,0,0,0,0,0,0,0,0,0,0,0,0,0,0,0,0,0,0,0,0,0,0,0,0,0,0,0,0,0,0,0,0,0,0,0,0,0,0,0,0,0,0,0,0,0,0,0,0,0,0,0,0,0,0,0,0,0,2.9992,2.9993,0,3.0102,3.0104,3.0105,3.0069,3.0067,3.0064,3.0062,3.0177,3.0182,3.0187,0,0,0,0,0,0,0,0,0,0,0,0,0,2.975,2.9755,2.9992,2.9993,2.9995,3.0102,3.0104,3.0105,3.007,3.0067,3.0064,3.0061,3.0175,3.0181,3.0188,0,0,0,0,0,0,0,0,0,0,0,0,0,2.9857,2.9756,2.9992,2.999,2.9991,3.0102,3.0104,3.0106,3.007,3.0067,3.0063,3.006,3.0173,3.0181,3.0189,3.0309,0,0,3.0213,3.0216,0,0,0,0,0,0,0,0,2.9851,2.9866,2.9989,2.999,2.9991,3.0068,3.006,3.0174,3.0071,3.004,3.0062,3.0058,3.0144,3.0154,3.0182,3.0314,3.0319,3.0213,3.0218,3.0222,3.0224,0,0,0,0,0,0,0,2.9844,2.9861,3.0036,2.9991,2.9992,2.9983,2.9995,3.0082,3.0111,3.0043,3.004,3.0054,3.0144,3.0175,3.0185,3.0321,3.0213,3.022,3.0225,3.0228,3.0553,3.0557,0,0,0,0,0,0,2.9836,2.9855,3.0032,3.0039,2.9911,2.9991,3.0003,3.0047,3.011,3.0116,3.0057,3.0052,3.0163,3.0176,3.0189,3.0331,3.0222,3.0229,3.0233,3.0549,3.0554,3.0558,0,0,0,0,0,0,2.9831,2.9852,3.0028,2.9947,2.9968,2.9999,3.0048,3.0051,3.0082,3.012,3.0125,3.0083,3.0161,3.0178,3.0278,3.0335,3.0233,3.024,3.0544,3.0551,3.0556,3.0618,0,0,0,0,0,0,2.9824,2.985,2.9896,2.9948,2.9973,3.0116,3.0052,3.0056,3.0096,3.009,3.0146,3.0152,3.0159,3.0267,3.0286,3.0344,3.0246,3.054,3.0547,3.0554,3.0611,3.0625,3.0638,0,0,0,0,0,2.9815,2.9911,2.9899,2.992,3.0031,3.0119,3.0133,3.0139,3.0101,3.0147,3.0171,3.015,3.0325,3.0277,3.0299,3.036,3.0536,3.0545,3.0553,3.0605,3.0623,3.0637,0,0,0,0,0,0,2.9866,2.9917,2.9905,3.002,3.0065,3.0113,3.0172,3.0158,3.0216,3.0208,3.0213,3.0226,3.0329,3.0355,3.03,3.0478,3.0425,3.0438,3.0457,3.0474,3.0487,3.0478,3.0252,0,0,0,0,0,2.9891,2.9957,2.9999,3.0096,3.0119,3.0142,3.018,3.018,3.0228,3.0247,3.0278,3.0326,3.0391,3.0434,3.0496,3.0615,3.0625,3.0667,3.068,3.0691,3.0702,3.0764,3.0783,3.0587,3.0587,3.0586,0,0,2.9942,2.9978,3.002,3.0107,3.0142,3.0211,3.0158,3.0234,3.0284,3.0259,3.0355,3.0379,3.0432,3.0541,3.0591,3.0566,3.0759,3.0702,3.071,3.0716,3.0775,3.0794,3.081,3.0593,3.0592,3.0591,0,0,3.007,3.0105,3.0188,3.0224,3.0278,3.0291,3.0311,3.0361,3.0376,3.0472,3.0453,3.0514,3.0627,3.0665,3.0699,3.0838,3.0821,3.0859,3.0927,3.0988,3.1003,3.1017,3.1065,3.1082,3.087,3.087,3.087,0,3.0127,3.023,3.0233,3.031,3.0348,3.0326,3.041,3.0445,3.0516,3.0543,3.0513,3.0653,3.0687,3.0803,3.0837,3.0866,3.0888,3.0852,3.1001,3.1014,3.1027,3.1073,3.1091,3.0874,3.0874,3.0873,3.0873,0,3.0296,3.0368,3.0429,3.0496,3.0541,3.0621,3.0636,3.0681,3.0677,3.0694,3.0791,3.0831,3.09,3.0928,3.0926,3.1043,3.1026,3.0999,3.0946,3.105,3.1093,3.111,3.088,3.0879,3.0877,3.0876,0,0,3.0461,3.0527,3.055,3.0579,3.0635,3.069,3.0769,3.0835,3.0872,3.0922,3.0987,3.1082,3.1056,3.1094,3.1096,3.1149,3.1254,3.1115,3.1116,3.1138,3.1384,3.1403,3.1423,3.1243,3.1247,3.1249,3.1379,0,3.0592,3.0729,3.0733,3.0858,3.0922,3.0902,3.097,3.1011,3.1029,3.1086,3.1105,3.1171,3.1134,3.1156,3.1208,3.123,3.1303,3.1221,3.1303,3.1305,3.1289,3.1446,3.1467,3.1588,3.1396,3.1399,3.1401,0,3.0764,3.0817,3.0948,3.0992,3.1019,3.108,3.114,3.1195,3.1241,3.125,3.1292,3.1285,3.1363,3.1308,3.1416,3.136,3.1393,3.1409,3.1414,3.1421,3.1359,3.1456,3.1627,3.1644,3.1428,3.1426,3.1424,0,3.0868,3.0972,3.1063,3.1089,3.1144,3.1187,3.1212,3.1254,3.1293,3.1345,3.137,3.1431,3.1465,3.1512,3.1521,3.1481,3.1629,3.1575,3.1637,3.1637,3.1669,3.1666,3.1845,3.1693,3.1692,3.1692,3.1692,0,3.1013,3.1093,3.111,3.1166,3.1255,3.1259,3.1346,3.1368,3.1405,3.1465,3.1452,3.1507,3.1517,3.1575,3.1583,3.1669,3.1685,3.1694,3.1694,3.1694,3.1693,3.1715,3.1707,3.1697,3.1696,3.1695,3.1694,0,3.1144,3.1159,3.1256,3.1299,3.1312,3.1375,3.1412,3.1465,3.148,3.1555,3.1572,3.1596,3.1663,3.1677,3.1758,3.1762,3.1865,3.1859,3.1849,3.1848,3.1909,3.1902,3.2108,3.2134,3.1965,3.1967,3.1968,0,3.1235,3.1296,3.1345,3.1383,3.1409,3.1472,3.151,3.1516,3.1557,3.1613,3.1659,3.1724,3.1776,3.1884,3.1909,3.1969,3.1963,3.2031,3.1972,3.1969,3.1962,3.1957,3.1963,3.2042,3.2044,3.2045,3.2046,0,3.1395,3.1398,3.1454,3.1513,3.1559,3.1605,3.1649,3.1681,3.1693,3.1739,3.1807,3.1848,3.1928,3.1992,3.2052,3.2078,3.2064,3.2064,3.2082,3.2081,3.2072,3.2076,3.1878,3.206,3.2058,3.2057,3.2057,3.2056,3.1507,3.1559,3.1601,3.1664,3.1697,3.1738,3.1789,3.1809,3.1866,3.1931,3.1931,3.2004,3.2047,3.2126,3.2155,3.2212,3.219,3.2216,3.2222,3.2228,3.2233,3.2064,3.2223,3.2223,3.2222,3.2222,3.2222,0,3.1664,3.169,3.1747,3.1808,3.1856,3.1838,3.1885,3.1927,3.1992,3.2032,3.2083,3.216,3.2222,3.225,3.2311,3.2351,3.2346,3.2367,3.2363,3.2369,3.2249,3.2227,3.237,3.237,3.237,3.237,3.237,3.237,3.1752,3.1838,3.1846,3.1949,3.1973,3.2044,3.2073,3.211,3.2142,3.2227,3.2278,3.2296,3.2331,3.2394,3.245,3.2456,3.2479,3.2502,3.2506,3.2393,3.2378,3.2363,3.2343,3.2507,3.2507,3.262,3.2622,3.2622]},{"header":{"parameterUnit":"m.s-1","parameterCategory":1,"la1":30.2991,"la2":30.254,"lo1":-89.0895,"lo2":-89.0444,"dy":0.0017,"dx":0.0017,"nx":28,"ny":28,"refTime":"2025-07-19T03:00:00:Z","depth":0,"parameterNumber":3,"parameterNumberName":"V-component_of_WINDS"},"data":[0,0,0,0,0,0,0,0,0,0,0,0,0,0,0,0,0,0,0,0,0,0,0,0,0,0,0,0,0,0,0,0,0,0,0,0,0,0,0,0,0,0,0,0,0,0,0,0,0,0,0,0,0,0,0,0,0,0,4.4201,4.4202,0,4.4293,4.4294,4.4295,4.4254,4.4252,4.425,4.4248,4.4336,4.434,4.4344,0,0,0,0,0,0,0,0,0,0,0,0,0,4.3983,4.3988,4.4201,4.4203,4.4204,4.4293,4.4294,4.4296,4.4255,4.4252,4.4249,4.4247,4.4334,4.4339,4.4345,0,0,0,0,0,0,0,0,0,0,0,0,0,4.4077,4.3989,4.4201,4.4194,4.4194,4.4293,4.4294,4.4296,4.4255,4.4252,4.4248,4.4245,4.4332,4.4339,4.4346,4.4454,0,0,4.4366,4.4369,0,0,0,0,0,0,0,0,4.4072,4.4085,4.4194,4.4195,4.4195,4.4259,4.425,4.4349,4.4256,4.4232,4.4248,4.4244,4.4312,4.4321,4.4345,4.4458,4.4462,4.4367,4.4371,4.4373,4.4375,0,0,0,0,0,0,0,4.4065,4.4081,4.4237,4.4196,4.4196,4.4184,4.4194,4.4268,4.429,4.4234,4.4231,4.4243,4.4312,4.4339,4.4347,4.4464,4.4366,4.4372,4.4376,4.4379,4.4668,4.4672,0,0,0,0,0,0,4.406,4.4076,4.4235,4.424,4.4124,4.4191,4.4201,4.4242,4.4289,4.4293,4.4246,4.4241,4.4329,4.4339,4.435,4.4479,4.4373,4.438,4.4383,4.4664,4.4669,4.4673,0,0,0,0,0,0,4.4055,4.4074,4.4231,4.4157,4.4176,4.4198,4.4244,4.4245,4.4272,4.4298,4.4301,4.4269,4.4327,4.434,4.4428,4.4481,4.4383,4.4389,4.466,4.4666,4.4671,4.4738,0,0,0,0,0,0,4.4049,4.4073,4.4116,4.4159,4.418,4.4311,4.4247,4.425,4.4284,4.4279,4.4321,4.4325,4.4325,4.4419,4.4435,4.4489,4.4394,4.4655,4.4663,4.4669,4.4732,4.4746,4.4758,0,0,0,0,0,4.4042,4.4131,4.4119,4.4138,4.4235,4.4314,4.4326,4.4326,4.4289,4.4331,4.4348,4.4323,4.4473,4.4428,4.4446,4.4502,4.4652,4.4661,4.4669,4.4726,4.4743,4.4757,0,0,0,0,0,0,4.4092,4.4136,4.4123,4.423,4.4268,4.4307,4.436,4.4345,4.4393,4.4386,4.4382,4.4392,4.4483,4.4501,4.4451,4.4609,4.4556,4.4569,4.4594,4.461,4.4623,4.4616,4.4399,0,0,0,0,0,4.4116,4.4178,4.4212,4.4303,4.4323,4.4339,4.4373,4.437,4.4409,4.4424,4.4447,4.4485,4.4539,4.4576,4.4628,4.4734,4.4741,4.4781,4.4794,4.4805,4.4815,4.487,4.4888,4.47,4.47,4.47,0,0,4.4165,4.4197,4.4236,4.4314,4.4343,4.4405,4.4353,4.4421,4.4466,4.4434,4.4519,4.4537,4.4578,4.4675,4.4719,4.4693,4.4869,4.4816,4.4824,4.4828,4.4881,4.4898,4.4914,4.4706,4.4705,4.4704,0,0,4.4287,4.4318,4.4396,4.4427,4.4473,4.4483,4.4502,4.4542,4.4553,4.4639,4.4616,4.4668,4.4764,4.4794,4.4821,4.4953,4.4931,4.497,4.5037,4.5091,4.5106,4.5119,4.5164,4.518,4.498,4.498,4.498,0,4.4342,4.4437,4.4437,4.4508,4.4541,4.4517,4.4594,4.4623,4.4684,4.4706,4.4677,4.4796,4.4822,4.4925,4.4957,4.498,4.4999,4.4965,4.5104,4.5117,4.5129,4.5172,4.5189,4.4985,4.4984,4.4984,4.4983,0,4.4501,4.4566,4.4623,4.4684,4.4724,4.4797,4.4807,4.4847,4.484,4.4852,4.4937,4.4968,4.5025,4.5049,4.5043,4.5151,4.5133,4.5104,4.5051,4.5152,4.5192,4.5208,4.4991,4.4989,4.4988,4.4987,0,0,4.4656,4.4717,4.4737,4.4764,4.4812,4.4862,4.4933,4.4991,4.5024,4.5066,4.5124,4.5205,4.5178,4.521,4.5206,4.5254,4.5353,4.5218,4.5219,4.5241,4.5471,4.5492,4.5511,4.534,4.5343,4.5346,4.5467,0,4.478,4.4907,4.4909,4.5025,4.5084,4.5061,4.5123,4.5158,4.5171,4.5221,4.5233,4.5291,4.5252,4.5271,4.5317,4.5332,4.5399,4.5323,4.5391,4.5393,4.5381,4.5533,4.5555,4.5668,4.5483,4.5486,4.5488,0,4.4942,4.499,4.5112,4.5151,4.5176,4.5232,4.5284,4.5333,4.5371,4.5377,4.5412,4.5401,4.547,4.5416,4.551,4.5458,4.5486,4.5497,4.5502,4.5507,4.5446,4.554,4.5705,4.5721,4.5513,4.5511,4.5509,0,4.5041,4.5137,4.5222,4.5245,4.5293,4.5332,4.5354,4.5389,4.5423,4.5468,4.549,4.5541,4.5569,4.5609,4.5611,4.5571,4.5705,4.5651,4.571,4.571,4.5738,4.5736,4.5908,4.5758,4.5758,4.5758,4.5757,0,4.5178,4.5253,4.5267,4.5319,4.5401,4.5402,4.5483,4.55,4.5532,4.5585,4.5568,4.5618,4.5618,4.5668,4.567,4.5747,4.576,4.5765,4.5764,4.5766,4.5765,4.5783,4.5774,4.5762,4.5761,4.576,4.576,0,4.5303,4.5316,4.5406,4.5445,4.5456,4.5515,4.5546,4.5594,4.5605,4.5672,4.5688,4.5705,4.5762,4.5769,4.5836,4.5837,4.5929,4.5921,4.5917,4.5915,4.5972,4.5966,4.6161,4.6185,4.6021,4.6023,4.6024,0,4.5389,4.5446,4.5491,4.5526,4.555,4.5607,4.5642,4.5645,4.5681,4.5729,4.5771,4.5827,4.5872,4.5965,4.5982,4.6032,4.6024,4.6089,4.6031,4.6031,4.6023,4.6019,4.6024,4.6099,4.6101,4.6103,4.6104,0,4.554,4.5543,4.5595,4.565,4.5692,4.5735,4.5774,4.5803,4.581,4.5852,4.5912,4.5947,4.6016,4.6071,4.6121,4.614,4.6122,4.6122,4.6138,4.6139,4.6134,4.6136,4.5945,4.6117,4.6116,4.6115,4.6114,4.6114,4.5647,4.5696,4.5735,4.5793,4.5824,4.5861,4.5908,4.5925,4.5976,4.6033,4.6031,4.6096,4.6131,4.6196,4.6219,4.6268,4.6247,4.627,4.6276,4.6281,4.6286,4.6128,4.6278,4.6277,4.6277,4.6277,4.6276,0,4.5795,4.5819,4.5873,4.593,4.5975,4.5957,4.5999,4.6037,4.6096,4.6131,4.6176,4.6244,4.6297,4.6318,4.637,4.6405,4.6398,4.6418,4.6415,4.6419,4.6304,4.6284,4.6423,4.6423,4.6423,4.6423,4.6423,4.6423,4.5878,4.596,4.5967,4.6063,4.6086,4.6151,4.6177,4.621,4.6238,4.6315,4.636,4.6374,4.6403,4.6456,4.6504,4.6508,4.6527,4.655,4.6551,4.6442,4.6428,4.6413,4.6395,4.6555,4.6555,4.6662,4.6663,4.6664]}]]